Location: Koula
(13.1637°N, 5.2637°W)
Time: 07:31:08
(UTC+00:00)

Daily predictions for brighter satellites

Satellite Brightness Start Highest point End
(mag) Time Altitude Azimuth Time Altitude Azimuth Time Altitude Azimuth
FengYun 1-2 T 4.4 18:28:13 10° S 18:33:43 83° WSW 18:39:16 10° NNW
Cosmos 1092 Rocket 4.4 18:29:46 10° SSE 18:35:36 42° E 18:41:21 10° NNE
Milstar 3 3.8 18:26:05 10° SW 18:38:02 58° SSE 18:45:08 10° ENE
SAR-Lupe-4 3.6 18:37:51 10° N 18:41:25 82° WNW 18:44:57 10° SSW
Meteor 2-10 Rocket 3.9 18:37:37 10° NNE 18:42:34 41° E 18:47:21 10° SSE
Cosmos 1603 3.7 18:37:00 10° NNW 18:42:44 81° ENE 18:48:28 10° SSE
Abrixas rocket 3.8 18:41:47 10° NNE 18:42:52 12° NE 18:43:57 10° ENE
Cosmos 1606 Rocket 3.9 18:38:52 10° N 18:43:15 72° W 18:47:40 10° S
SJ 16-02 2.9 18:40:58 10° SW 18:45:03 38° WNW 18:49:09 10° N
Cosmos 1937 Rocket 3.9 18:44:33 10° S 18:49:30 44° E 18:54:30 10° NNE
IUS-14 SRM-1 4.0 18:46:42 10° W 18:49:43 58° SSW 18:59:03 10° ESE
Nadezhda 4 Rocket 4.5 18:46:36 10° SSW 18:52:51 68° W 18:59:04 10° N
Cosmos 1703 3.2 18:55:09 10° S 18:59:02 84° E 19:02:54 10° N
Cosmos 1340 2.6 18:56:28 10° S 19:00:09 59° E 19:03:50 10° NNE
ARIANE 5 R/B 3.0 19:02:40 10° SW 19:04:15 17° S 19:05:46 10° SE
Cosmos 1346 Rocket 4.1 19:01:28 10° SE 19:04:24 20° E 19:05:26 18° ENE
Cosmos 1538 Rocket 4.3 19:00:42 10° N 19:05:34 43° ENE 19:10:29 10° SSE
Aureole 3 3.4 19:02:58 10° NNE 19:05:37 29° E 19:08:18 10° SSE
ATLAS 3B R/B 3.1 18:59:27 10° NNW 19:06:40 75° WSW 19:14:05 10° SSE
GPS 2-14 Rocket1 3.9 19:03:31 10° WNW 19:07:08 29° N 19:09:16 19° NE
Palapa 6 Rocket 3.4 19:03:19 10° WNW 19:09:05 81° SSW 19:13:16 13° ESE
ARGOS 3.9 19:04:49 10° SE 19:09:17 27° ENE 19:13:43 10° NNE
Cosmos 1455 2.4 19:06:42 10° N 19:10:23 47° E 19:14:05 10° SSE
Cosmos 2058 Rocket 3.5 19:10:26 10° N 19:14:53 67° W 19:19:22 10° S
SWIFT 3.4 19:12:31 10° WNW 19:16:19 30° N 19:17:59 23° NE
Ariane H10+ 4.4 19:13:04 10° WSW 19:17:57 48° SSE 19:36:07 13° E
FUSE 3.8 19:13:47 10° WNW 19:19:07 84° NNE 19:22:58 19° ESE
CZ-4 R/B 1.4 19:19:31 10° S 19:23:43 87° W 19:27:50 10° NNW
Cosmos 1328 4.4 19:21:04 10° SSW 19:25:01 58° W 19:28:58 10° N
IRS-1C Rocket 4.5 19:21:28 10° S 19:26:41 67° WSW 19:31:53 10° NNW
Sakura Rocket 4.0 19:21:52 10° WSW 19:28:48 60° NNW 19:31:30 28° NE
NOAA 15 4.5 19:24:21 10° SSE 19:29:34 82° ENE 19:34:49 10° N
Cosmos 2026 Rocket 4.1 19:23:57 10° S 19:29:59 76° W 19:36:05 10° N
Meteor 2-19 Rocket 4.4 19:28:48 10° S 19:34:56 84° E 19:41:06 10° N
Delta 168 2.2 19:32:26 10° WNW 19:35:32 81° SSW 19:36:08 56° SE
CZ-2C R/B 3.0 19:31:08 10° N 19:36:42 70° WNW 19:42:16 10° SSW
Okean-O 3.1 19:36:53 10° S 19:41:14 61° WSW 19:45:36 10° NNW
Cosmos 1758 Rocket 4.0 19:37:47 10° SSW 19:42:06 62° W 19:46:27 10° N
H-2A R/B 2.3 19:43:10 10° S 19:48:01 64° WSW 19:52:55 10° NNW
HJ-1C 3.7 19:44:53 10° S 19:47:36 56° SSW 19:47:36 56° SSW
GEOS 3 Rocket 3.5 19:53:24 46° NNE 19:55:00 89° ESE 20:00:08 10° SSW
Cosmos 2278 Rocket 2.8 19:52:57 10° SSW 19:58:27 53° WNW 20:02:22 19° N
Cosmos 1809 Rocket 4.4 19:56:42 10° S 20:02:21 57° ESE 20:02:21 57° ESE
YAOGAN 1 4.4 19:59:02 10° SSW 20:02:49 30° W 20:06:37 10° NW
Cosmos 2298 Rocket 4.1 20:00:45 10° S 20:05:13 59° SSE 20:05:13 59° SSE
CSL-04 Rocket 3.9 20:05:24 10° S 20:10:39 65° WSW 20:15:59 10° NNW
Cosmos 158 Rocket 4.0 20:06:48 10° NNW 20:12:11 81° WSW 20:17:33 10° S
ASTRO E2 4.4 20:08:24 10° SW 20:10:34 29° SSW 20:10:34 29° SSW
Milstar 3 4.4 21:14:57 10° W 21:19:03 28° WNW 21:19:03 28° WNW
